When you browse on this site, cookies collect data to enhance your experience and personalize the content and advertising you see.
Visit our Privacy Policy to learn more. By continuing to use the site, you agree to this use of cookies and data.
  • In France
  • List of Countries
  • For 7 days
  • Water Temperature
  • Weather Map
  • Weather Widgets
  • user-avatar
    Login

    Hourly Weather Turpan

    Today, 16 September, Monday

    Time Temperature Precipitation Wind Pressure Humidity
    00:00 +27°C° 0 mm 2 mps 760 mmHg 19%
    01:00 +27°C° 0 mm 3 mps 760 mmHg 19%
    02:00 +26°C° 0 mm 3 mps 760 mmHg 20%
    03:00 +26°C° 0 mm 3 mps 760 mmHg 20%
    04:00 +26°C° 0 mm 3 mps 760 mmHg 20%
    05:00 +25°C° 0 mm 3 mps 760 mmHg 20%
    06:00 +25°C° 0 mm 2 mps 760 mmHg 21%
    07:00 +27°C° 0 mm 2 mps 760 mmHg 19%
    08:00 +29°C° 0 mm 2 mps 760 mmHg 17%
    09:00 +30°C° 0 mm 2 mps 760 mmHg 15%
    10:00 +31°C° 0 mm 2 mps 760 mmHg 14%
    11:00 +32°C° 0 mm 2 mps 760 mmHg 13%
    12:00 +34°C° 0 mm 2 mps 759 mmHg 13%
    13:00 +35°C° 0 mm 2 mps 759 mmHg 12%
    14:00 +36°C° 0 mm 2 mps 758 mmHg 12%
    15:00 +36°C° 0 mm 2 mps 757 mmHg 11%
    16:00 +35°C° 0 mm 2 mps 758 mmHg 12%
    17:00 +33°C° 0 mm 1 mps 758 mmHg 13%
    18:00 +32°C° 0 mm 1 mps 758 mmHg 14%
    19:00 +31°C° 0 mm 2 mps 759 mmHg 15%
    20:00 +30°C° 0 mm 2 mps 759 mmHg 16%
    21:00 +29°C° 0 mm 3 mps 760 mmHg 17%
    22:00 +29°C° 0 mm 4 mps 760 mmHg 18%
    23:00 +28°C° 0 mm 4 mps 760 mmHg 18%

    Tomorrow, 17 September, Tuesday

    Time Temperature Precipitation Wind Pressure Humidity
    00:00 +28°C° 0 mm 4 mps 761 mmHg 19%
    01:00 +28°C° 0 mm 4 mps 761 mmHg 20%
    02:00 +27°C° 0 mm 4 mps 761 mmHg 20%
    03:00 +27°C° 0 mm 4 mps 761 mmHg 21%
    04:00 +26°C° 0 mm 4 mps 762 mmHg 22%
    05:00 +26°C° 0 mm 3 mps 762 mmHg 23%
    06:00 +26°C° 0 mm 3 mps 763 mmHg 24%
    07:00 +27°C° 0 mm 3 mps 763 mmHg 22%
    08:00 +28°C° 0 mm 2 mps 763 mmHg 20%
    09:00 +30°C° 0 mm 2 mps 763 mmHg 18%
    10:00 +31°C° 0 mm 2 mps 763 mmHg 17%
    11:00 +32°C° 0 mm 2 mps 763 mmHg 15%
    12:00 +34°C° 0 mm 2 mps 763 mmHg 13%
    13:00 +35°C° 0 mm 3 mps 763 mmHg 13%
    14:00 +35°C° 0 mm 3 mps 762 mmHg 12%
    15:00 +36°C° 0 mm 4 mps 762 mmHg 12%
    16:00 +35°C° 0 mm 5 mps 763 mmHg 14%
    17:00 +34°C° 0 mm 5 mps 763 mmHg 16%
    18:00 +33°C° 0 mm 6 mps 764 mmHg 18%
    19:00 +32°C° 0 mm 6 mps 764 mmHg 19%
    20:00 +30°C° 0 mm 6 mps 765 mmHg 20%
    21:00 +29°C° 0 mm 6 mps 765 mmHg 21%
    22:00 +29°C° 0 mm 5 mps 765 mmHg 23%
    23:00 +28°C° 0 mm 5 mps 765 mmHg 24%

    Day after tomorrow, 18 September, Wednesday

    Time Temperature Precipitation Wind Pressure Humidity
    00:00 +27°C° 0 mm 4 mps 765 mmHg 25%
    01:00 +27°C° 0 mm 4 mps 765 mmHg 26%
    02:00 +27°C° 0 mm 4 mps 765 mmHg 26%
    03:00 +26°C° 0 mm 4 mps 765 mmHg 27%
    04:00 +26°C° 0 mm 3 mps 766 mmHg 28%
    05:00 +25°C° 0 mm 3 mps 766 mmHg 28%
    06:00 +24°C° 0 mm 2 mps 766 mmHg 29%
    07:00 +26°C° 0 mm 2 mps 766 mmHg 27%
    08:00 +28°C° 0 mm 2 mps 766 mmHg 24%
    09:00 +29°C° 0 mm 2 mps 766 mmHg 21%
    10:00 +30°C° 0 mm 2 mps 766 mmHg 20%
    11:00 +32°C° 0 mm 2 mps 765 mmHg 19%
    12:00 +33°C° 0 mm 1 mps 765 mmHg 17%
    13:00 +33°C° 0 mm 1 mps 764 mmHg 16%
    14:00 +34°C° 0 mm 1 mps 764 mmHg 15%
    15:00 +34°C° 0 mm 1 mps 763 mmHg 13%
    16:00 +33°C° 0 mm 1 mps 763 mmHg 14%
    17:00 +32°C° 0 mm 1 mps 763 mmHg 15%
    18:00 +31°C° 0 mm 1 mps 763 mmHg 16%
    19:00 +30°C° 0 mm 1 mps 763 mmHg 17%
    20:00 +29°C° 0 mm 1 mps 763 mmHg 19%
    21:00 +26°C° 0 mm 0 mps 764 mmHg 20%
    22:00 +28°C° 0 mm 1 mps 763 mmHg 20%
    23:00 +28°C° 0 mm 1 mps 763 mmHg 20%

    19 September, Thursday

    Time Temperature Precipitation Wind Pressure Humidity
    00:00 +27°C° 0 mm 2 mps 763 mmHg 19%
    01:00 +27°C° 0 mm 2 mps 763 mmHg 20%
    02:00 +27°C° 0 mm 2 mps 762 mmHg 20%
    03:00 +26°C° 0 mm 3 mps 762 mmHg 21%
    04:00 +25°C° 0 mm 2 mps 762 mmHg 22%
    05:00 +25°C° 0 mm 2 mps 762 mmHg 24%
    06:00 +24°C° 0 mm 1 mps 763 mmHg 26%
    07:00 +26°C° 0 mm 1 mps 763 mmHg 23%
    08:00 +28°C° 0 mm 1 mps 762 mmHg 21%
    09:00 +30°C° 0 mm 1 mps 762 mmHg 19%
    10:00 +31°C° 0 mm 1 mps 762 mmHg 17%
    11:00 +32°C° 0 mm 2 mps 762 mmHg 16%
    12:00 +34°C° 0 mm 2 mps 761 mmHg 15%
    13:00 +35°C° 0 mm 2 mps 761 mmHg 14%
    14:00 +36°C° 0 mm 2 mps 760 mmHg 14%
    15:00 +36°C° 0 mm 2 mps 760 mmHg 13%
    16:00 +34°C° 0 mm 1 mps 760 mmHg 15%
    17:00 +32°C° 0 mm 1 mps 760 mmHg 16%
    18:00 +31°C° 0 mm 1 mps 761 mmHg 17%
    19:00 +30°C° 0 mm 1 mps 761 mmHg 18%
    20:00 +29°C° 0 mm 1 mps 762 mmHg 19%
    21:00 +29°C° 0 mm 1 mps 762 mmHg 20%
    22:00 +28°C° 0 mm 1 mps 762 mmHg 20%
    23:00 +25°C° 0 mm 0 mps 762 mmHg 21%

    20 September, Friday

    Time Temperature Precipitation Wind Pressure Humidity
    00:00 +25°C° 0 mm 0 mps 762 mmHg 22%
    01:00 +25°C° 0 mm 0 mps 762 mmHg 22%
    02:00 +24°C° 0 mm 0 mps 761 mmHg 22%
    03:00 +24°C° 0 mm 0 mps 761 mmHg 22%
    04:00 +26°C° 0 mm 1 mps 761 mmHg 22%
    05:00 +26°C° 0 mm 1 mps 761 mmHg 23%
    06:00 +26°C° 0 mm 1 mps 762 mmHg 23%
    07:00 +28°C° 0 mm 1 mps 762 mmHg 20%
    08:00 +30°C° 0 mm 1 mps 761 mmHg 17%
    09:00 +32°C° 0 mm 1 mps 761 mmHg 15%
    10:00 +33°C° 0 mm 1 mps 761 mmHg 14%
    11:00 +35°C° 0 mm 1 mps 761 mmHg 13%
    12:00 +36°C° 0 mm 1 mps 760 mmHg 12%
    13:00 +36°C° 0 mm 1 mps 760 mmHg 12%
    14:00 +37°C° 0 mm 1 mps 759 mmHg 11%
    15:00 +37°C° 0 mm 1 mps 759 mmHg 10%
    16:00 +36°C° 0 mm 1 mps 759 mmHg 12%
    17:00 +34°C° 0 mm 1 mps 759 mmHg 13%
    18:00 +32°C° 0 mm 1 mps 760 mmHg 14%
    19:00 +32°C° 0 mm 1 mps 760 mmHg 15%
    20:00 +31°C° 0 mm 1 mps 761 mmHg 15%
    21:00 +31°C° 0 mm 1 mps 761 mmHg 16%
    22:00 +30°C° 0 mm 1 mps 761 mmHg 16%
    23:00 +30°C° 0 mm 1 mps 761 mmHg 17%

    21 September, Saturday

    Time Temperature Precipitation Wind Pressure Humidity
    00:00 +29°C° 0 mm 2 mps 761 mmHg 17%
    01:00 +29°C° 0 mm 2 mps 761 mmHg 18%
    02:00 +28°C° 0 mm 2 mps 761 mmHg 18%
    03:00 +27°C° 0 mm 2 mps 761 mmHg 19%
    04:00 +27°C° 0 mm 1 mps 762 mmHg 20%
    05:00 +27°C° 0 mm 1 mps 762 mmHg 20%
    06:00 +26°C° 0 mm 1 mps 762 mmHg 21%
    07:00 +29°C° 0 mm 1 mps 762 mmHg 18%
    08:00 +31°C° 0 mm 2 mps 762 mmHg 15%
    09:00 +35°C° 0 mm 2 mps 762 mmHg 13%
    10:00 +36°C° 0 mm 2 mps 762 mmHg 12%
    11:00 +37°C° 0 mm 2 mps 761 mmHg 11%
    12:00 +38°C° 0 mm 2 mps 761 mmHg 10%
    13:00 +39°C° 0 mm 2 mps 760 mmHg 9%
    14:00 +39°C° 0 mm 2 mps 760 mmHg 8%
    15:00 +40°C° 0 mm 2 mps 760 mmHg 8%
    16:00 +37°C° 0 mm 1 mps 760 mmHg 9%
    17:00 +35°C° 0 mm 1 mps 760 mmHg 10%
    18:00 +33°C° 0 mm 1 mps 760 mmHg 11%
    19:00 +32°C° 0 mm 1 mps 760 mmHg 12%
    20:00 +31°C° 0 mm 1 mps 761 mmHg 13%
    21:00 +30°C° 0 mm 1 mps 761 mmHg 14%
    22:00 +30°C° 0 mm 1 mps 761 mmHg 14%
    23:00 +29°C° 0 mm 1 mps 761 mmHg 15%
    Show more